Theta_e
350 349 349 349 349 350 351 350 350 351 351 349 349 348 345 344 340 339 338 340 341 347 348 347 354 358 359 360 361 362 364 368 370 368 366 367 367 359 357 359 361 362 363 362 361 360 358 357 356 355 355 355 355 356 355 355 355 355 354 354 352 350 347 345 344 343 342 342 342 342 342 341 341 341
350 350 349 350 349 351 350 350 351 352 351 349 348 348 347 347 343 342 338 340 342 345 348 348 351 355 358 358 359 362 362 366 367 363 362 364 364 356 356 357 357 357 356 356 357 357 356 356 355 354 353 354 355 354 355 354 354 353 353 352 348 346 345 343 341 340 340 340 340 341 341 341 340 340
350 350 349 350 349 351 350 351 351 352 353 350 350 349 349 348 347 344 342 338 345 345 347 349 351 355 357 357 358 359 362 367 365 361 361 361 360 357 359 356 355 353 351 352 354 356 355 355 354 352 352 353 354 354 354 353 353 352 350 347 346 345 342 340 340 340 340 340 340 340 339 339 339 339
349 350 349 349 349 350 351 351 352 353 354 352 350 350 348 348 347 347 344 340 341 346 347 350 353 355 357 359 357 359 360 364 360 361 359 359 359 360 360 355 353 351 349 349 350 352 354 354 353 352 352 352 354 354 353 352 350 348 347 346 344 342 340 340 339 339 338 338 338 338 337 337 337 337
350 350 350 350 350 351 351 351 352 352 352 353 352 352 350 349 349 347 344 341 342 347 349 350 351 355 357 355 357 357 358 360 361 358 359 359 359 358 358 358 349 348 348 347 347 347 349 352 353 352 352 352 353 352 351 349 347 346 345 343 341 339 338 337 335 334 333 333 333 333 333 334 334 334
350 351 350 350 350 352 350 351 351 351 352 352 351 350 350 348 348 348 346 343 343 342 351 351 354 353 356 354 357 356 356 357 360 356 357 358 358 356 357 356 354 346 346 345 345 345 345 347 350 352 352 352 351 350 348 346 345 344 342 339 336 334 334 333 331 330 329 328 327 327 328 330 331 332
350 349 350 350 350 351 350 350 351 353 352 352 350 350 350 349 349 349 348 346 343 343 345 350 351 352 354 354 354 356 358 359 358 356 355 355 356 356 356 354 351 344 344 344 344 344 343 343 345 347 348 349 349 348 346 344 340 336 334 331 330 330 330 329 327 326 325 325 324 324 324 325 328 329
349 349 349 350 351 351 350 350 351 352 352 351 350 350 351 351 350 349 349 347 346 345 344 349 351 352 353 354 355 358 358 357 355 356 355 356 355 354 353 351 349 345 343 344 344 343 341 340 340 341 341 342 343 340 335 332 330 328 327 327 326 326 325 325 324 324 323 323 323 324 324 324 325 327
350 349 349 350 351 351 349 350 350 351 351 351 350 350 350 351 351 351 349 347 347 346 344 346 351 353 352 354 354 356 354 353 354 354 353 353 353 352 352 350 348 344 344 344 343 342 341 340 338 337 336 335 333 331 330 328 326 325 324 323 321 321 322 322 322 321 321 321 321 320 321 322 322 324
350 350 350 350 351 351 349 349 350 351 351 351 350 349 350 350 352 350 350 349 348 346 346 346 346 347 348 349 351 354 356 352 349 348 349 349 349 350 347 347 346 347 347 348 346 341 340 338 336 336 334 332 330 330 328 326 324 322 320 319 318 318 319 318 318 318 318 319 319 318 319 320 321 322
350 350 350 350 351 350 350 350 350 351 350 350 350 350 350 350 350 349 349 349 347 345 345 347 348 346 348 351 348 351 356 355 352 346 343 344 346 347 345 341 341 344 344 346 346 346 345 342 339 331 330 330 329 328 327 325 324 321 319 317 318 318 318 318 317 317 316 316 316 316 316 318 319 321
350 350 350 350 351 351 351 352 352 352 350 350 350 350 350 350 349 349 349 349 347 346 345 344 345 346 346 346 350 350 351 349 348 349 346 342 341 342 344 342 339 340 342 342 343 342 341 339 336 333 333 332 330 328 326 325 324 323 321 318 318 318 318 317 317 317 317 317 316 315 314 314 317 321
351 350 350 350 351 353 356 358 357 356 355 351 349 350 350 349 349 349 349 348 347 346 346 345 346 345 344 344 344 344 344 345 345 348 348 345 344 343 340 340 342 341 339 339 339 338 337 334 332 332 331 331 330 328 326 325 325 323 321 320 319 318 317 317 317 317 317 317 317 317 316 314 314 319
350 350 351 352 355 355 356 355 356 356 358 358 353 351 350 349 349 348 348 348 348 347 345 344 343 343 342 342 344 344 345 348 350 347 346 343 341 341 339 336 338 340 339 336 334 333 335 333 330 330 330 331 331 327 326 324 322 323 321 319 319 318 318 317 317 317 316 316 317 317 317 315 315 317
348 349 350 350 353 355 355 353 354 357 357 357 359 359 357 355 350 349 348 349 349 347 345 345 344 343 343 344 346 346 347 347 346 345 345 343 339 337 333 331 333 339 338 335 332 329 332 332 328 329 331 330 328 325 323 325 323 322 321 319 319 318 318 318 318 317 316 316 317 318 317 316 316 317
348 348 349 350 350 351 351 352 353 354 358 357 358 359 360 358 358 356 352 350 349 348 346 345 344 343 343 344 345 346 346 345 345 344 344 342 338 336 336 335 331 335 338 334 331 328 330 331 330 329 329 329 325 323 323 323 322 322 320 319 319 319 319 318 318 317 317 317 317 318 318 318 318 318
347 348 348 348 350 350 354 353 352 353 354 356 347 347 353 356 356 346 348 354 353 351 348 346 345 344 345 344 344 347 346 348 343 342 340 341 339 339 337 337 336 334 337 333 330 326 327 329 329 328 329 327 323 322 325 323 323 320 319 319 319 319 319 318 317 317 317 316 315 316 316 316 317 316
347 348 348 348 348 350 351 352 352 353 354 355 355 353 352 353 355 358 355 356 358 355 350 348 345 346 348 345 346 349 349 345 342 339 338 340 339 338 338 341 339 337 336 333 329 326 325 328 328 327 327 325 321 322 322 321 320 319 319 318 319 319 318 318 318 317 317 317 314 314 315 315 315 315
347 348 349 349 349 350 350 351 352 352 352 352 351 352 349 347 348 351 353 354 354 353 352 350 349 348 348 348 349 349 350 346 345 342 341 340 341 340 335 335 336 334 336 335 331 326 325 327 326 326 325 323 320 321 320 320 319 319 318 318 318 318 318 318 318 318 318 318 316 313 313 314 314 314
347 348 349 349 349 349 350 349 342 346 353 350 349 347 342 341 344 348 353 346 347 353 353 352 350 349 349 345 348 348 348 346 346 344 341 340 335 332 332 331 331 330 332 334 331 327 324 326 326 325 324 321 319 320 322 320 319 318 318 318 318 318 317 317 317 318 318 317 317 314 312 312 312 312
347 348 349 350 350 350 350 346 337 338 348 348 347 343 341 341 342 346 350 342 337 338 338 338 340 340 338 336 335 334 337 343 342 339 335 333 333 332 329 329 328 328 329 329 332 328 324 325 326 322 321 320 319 318 319 320 320 318 318 318 318 317 317 317 317 317 317 317 317 316 312 311 311 313
347 348 350 351 351 350 350 340 335 334 347 347 346 344 342 340 342 346 349 350 348 337 336 336 337 336 336 337 335 335 334 334 342 337 333 334 334 333 332 327 327 327 327 328 328 328 325 325 325 321 320 321 320 318 318 319 320 319 318 318 318 317 317 317 317 316 317 317 316 316 314 311 313 317
345 346 349 351 350 350 347 335 333 331 349 346 344 343 343 341 342 346 349 349 349 348 345 345 343 342 343 344 342 342 342 343 344 340 339 336 334 333 331 328 324 320 323 327 327 326 321 323 322 320 316 314 316 319 318 318 319 321 321 320 319 319 318 318 316 316 316 316 316 315 314 311 312 319
342 346 347 346 338 333 332 329 327 327 332 346 342 342 341 341 341 347 349 349 350 349 347 347 346 345 345 345 344 344 344 343 343 340 341 337 336 334 331 326 325 325 323 325 326 325 323 324 320 322 321 316 312 314 317 317 318 319 320 320 320 320 321 320 317 315 315 314 314 313 312 312 311 317
342 343 346 347 341 330 326 325 324 322 323 338 344 341 340 342 344 348 348 348 351 348 345 345 345 345 343 343 343 342 343 342 342 340 337 337 337 335 330 326 326 326 321 324 326 322 319 322 320 320 317 318 317 313 314 315 317 316 318 319 318 319 321 320 319 320 314 313 311 310 310 310 310 315
342 344 345 346 341 329 325 323 321 320 320 324 342 342 330 330 332 344 347 347 346 343 341 340 340 341 339 339 339 339 340 340 341 340 337 335 337 337 333 328 326 320 315 323 325 323 320 319 319 319 316 313 313 316 311 311 313 315 318 317 317 317 319 319 320 320 321 322 321 315 315 310 311 312
342 345 346 347 341 327 321 319 319 319 318 324 333 327 324 326 328 339 344 343 341 339 336 335 336 334 334 335 335 336 336 337 338 337 335 335 334 332 330 328 325 322 320 323 326 324 323 319 321 318 314 313 312 314 314 310 310 314 316 317 318 318 319 319 319 318 319 320 320 314 311 310 311 312
343 344 345 344 329 322 316 316 318 319 321 328 321 320 324 326 335 340 341 339 338 336 333 333 334 331 329 330 330 331 332 331 333 332 329 327 326 325 324 325 326 323 322 322 322 324 322 319 318 319 316 313 312 311 311 314 313 311 312 314 316 316 318 318 318 319 319 319 318 317 316 314 316 316
342 336 327 324 321 320 316 316 318 320 322 319 319 320 323 335 336 334 336 335 332 329 326 323 320 318 319 319 321 321 323 326 326 325 323 323 323 322 322 323 325 323 322 321 319 319 320 319 316 313 314 314 313 313 312 310 310 310 313 312 312 314 316 317 318 318 318 317 316 316 315 314 314 318
331 328 324 321 320 320 322 326 329 330 330 322 324 327 333 331 331 330 328 326 322 317 317 317 316 316 317 318 320 321 321 319 320 321 320 319 318 317 316 314 314 315 317 319 317 317 316 315 313 313 312 313 313 311 311 309 309 311 314 312 315 317 316 315 315 316 317 315 315 315 315 314 314 316
331 333 333 332 328 327 325 326 323 324 325 329 330 328 326 326 325 324 322 319 316 316 315 315 315 316 317 319 319 317 317 316 316 318 319 317 315 316 314 313 311 312 315 317 318 316 315 314 314 313 311 311 313 311 311 311 309 310 313 315 314 310 313 314 315 314 316 315 315 315 315 314 315 317
334 333 328 320 327 327 326 328 328 326 325 324 323 323 323 322 322 322 322 320 316 315 314 314 315 316 316 315 315 315 315 315 316 317 316 314 313 314 312 310 309 311 312 314 315 317 318 314 313 314 313 311 309 309 311 311 309 310 313 314 315 315 315 312 312 313 314 314 312 312 313 313 313 314
331 328 328 326 325 325 324 324 323 322 322 321 321 320 320 319 318 317 316 313 313 314 314 313 313 314 314 314 315 315 314 315 315 315 314 315 313 313 312 310 310 309 309 310 313 313 314 315 317 313 313 313 312 311 310 309 311 312 312 313 314 312 313 314 313 313 313 312 311 311 312 313 313 313
328 327 326 325 324 323 323 322 321 321 320 319 319 319 319 318 317 316 315 314 314 315 314 314 313 312 312 311 313 313 313 313 314 316 316 313 314 312 310 309 309 311 311 311 312 312 313 313 313 314 315 314 315 316 315 313 310 310 312 313 313 312 313 313 312 313 312 310 309 308 309 310 312 313
328 326 325 325 325 323 322 322 321 320 319 319 317 316 316 316 316 315 314 314 315 315 315 315 315 315 314 314 314 313 313 314 314 314 316 315 314 312 311 310 310 311 310 310 311 312 313 312 312 312 313 314 315 315 312 317 315 312 311 311 312 313 313 313 312 310 311 312 311 309 308 309 311 313
327 327 325 324 322 322 321 321 321 319 318 317 315 314 313 313 315 314 313 314 315 315 314 314 315 314 314 314 315 314 314 314 313 312 312 312 311 312 312 312 312 311 311 311 311 313 313 312 312 311 309 309 309 308 312 311 313 317 313 312 311 311 312 312 313 311 309 309 311 310 307 307 308 312
326 326 324 322 321 321 320 320 318 318 317 316 315 315 314 314 314 315 315 316 317 317 316 315 314 315 315 316 316 316 316 314 313 314 314 314 313 313 312 314 314 313 311 312 314 314 314 313 313 312 310 308 307 306 309 311 310 313 317 314 312 311 311 311 310 308 309 310 310 309 309 309 309 311
322 323 322 321 320 319 319 318 318 317 316 317 317 317 316 316 316 316 317 316 316 316 315 314 314 315 315 316 314 314 314 315 315 314 314 314 313 313 314 313 313 313 312 313 315 315 314 314 313 312 311 308 308 308 308 310 311 311 312 315 313 311 311 310 309 309 310 310 309 311 310 308 309 312
321 320 320 319 319 318 317 317 317 316 316 316 317 317 317 317 317 316 316 315 315 314 314 314 313 313 314 314 315 315 314 313 313 313 313 313 313 311 310 309 308 309 310 310 312 314 314 314 313 313 312 311 309 310 312 310 309 313 310 309 313 312 311 310 310 311 311 309 309 311 310 313 310 308
320 320 319 318 317 317 317 317 316 316 316 316 316 316 316 316 315 315 314 314 314 314 314 315 315 315 316 317 316 315 315 314 313 313 313 314 313 310 309 309 308 308 309 309 309 311 313 313 314 313 314 315 315 314 314 313 310 310 311 309 309 313 314 311 310 310 309 311 312 309 308 309 307 311
318 317 317 317 316 316 316 316 316 316 316 317 317 318 316 316 315 315 317 318 319 316 316 316 316 316 316 316 316 315 313 314 314 314 314 314 312 311 311 311 310 311 310 309 309 309 309 311 316 316 315 312 311 310 309 307 305 306 309 311 308 308 310 312 312 312 310 313 310 308 308 307 308 309
317 316 317 317 316 316 315 315 316 316 316 316 316 316 316 317 318 320 318 318 315 315 314 313 314 315 314 314 314 314 313 312 313 313 313 312 312 313 312 311 310 311 310 308 308 308 309 312 316 312 310 309 309 307 305 306 306 307 310 310 311 308 308 310 310 311 315 312 309 307 306 305 305 305
316 315 315 316 316 315 315 316 316 316 316 317 317 316 315 314 314 313 312 312 312 312 312 312 311 311 311 311 311 312 312 312 312 312 312 312 312 310 309 310 310 309 309 308 308 308 309 310 311 311 311 312 311 309 307 307 308 307 307 308 309 310 310 307 306 307 308 309 309 310 312 309 306 303
313 313 313 314 314 315 315 316 316 316 315 314 314 314 313 312 311 311 311 311 311 310 310 309 309 309 309 309 311 312 312 311 312 312 311 311 310 310 310 310 310 309 308 307 306 307 307 308 310 309 308 307 308 306 306 306 306 308 307 308 310 309 308 309 310 308 308 308 307 308 308 309 310 308
314 313 313 314 314 314 314 314 314 314 314 313 313 312 312 311 310 309 309 309 308 308 308 307 307 308 309 310 309 309 311 312 311 311 311 311 311 311 310 309 309 308 306 306 305 305 306 306 306 308 307 307 308 308 308 308 307 308 308 308 308 308 307 308 307 307 308 308 306 307 309 309 310 309
Wind_Speed
10 9 11 9 8 8 8 8 8 8 8 7 7 7 8 8 8 6 5 4 5 4 5 5 1 4 3 4 3 5 5 7 11 6 6 7 7 11 13 13 12 11 11 10 10 9 8 8 7 7 6 5 5 6 6 6 6 7 7 8 8 7 8 8 8 8 8 7 6 6 6 6 6 7
8 9 9 8 9 8 8 9 9 8 8 7 8 7 7 8 9 7 8 6 5 4 3 5 3 3 4 4 4 3 4 8 10 6 7 7 8 13 13 13 12 10 10 9 8 8 8 8 7 6 5 5 5 5 5 6 8 8 8 8 8 8 9 9 8 8 8 7 7 6 6 6 6 7
10 10 11 10 9 8 9 9 9 9 8 7 7 7 7 7 9 8 7 8 4 5 5 5 5 4 5 5 4 4 3 7 9 6 6 7 11 14 11 13 11 10 11 10 9 9 9 8 7 6 6 6 5 5 6 8 9 9 8 8 8 8 9 9 9 8 8 7 7 6 6 6 6 6
11 13 13 12 11 9 8 9 9 9 7 7 7 8 8 9 9 8 8 9 10 5 6 6 5 6 6 6 6 5 4 7 9 7 6 7 9 8 6 11 11 11 11 11 10 9 9 9 8 8 7 7 7 8 9 10 9 9 9 9 9 10 10 10 9 9 8 8 7 7 6 6 6 6
13 12 12 12 13 11 11 9 8 8 8 7 7 8 7 8 7 8 8 9 10 5 3 2 3 5 6 7 8 7 6 8 8 6 6 7 7 6 6 6 10 11 11 11 10 9 9 9 9 9 8 8 9 10 10 9 9 9 9 9 11 11 10 10 10 10 9 9 8 8 7 7 7 7
10 11 11 12 11 10 11 10 9 8 8 8 7 8 7 7 7 8 8 9 8 9 2 3 2 4 6 6 9 9 9 11 10 9 6 5 4 5 5 5 6 12 11 11 10 9 9 9 8 9 10 10 10 10 10 10 9 9 9 10 10 9 10 11 11 10 10 9 8 8 8 7 7 7
10 11 12 12 11 9 11 11 10 9 10 7 9 10 7 8 8 8 9 8 8 9 7 4 4 5 7 7 9 9 7 9 12 11 9 9 7 5 6 6 5 11 12 12 11 10 10 9 9 9 9 10 10 9 8 8 10 10 9 9 9 10 10 9 10 10 9 9 8 7 7 7 6 6
10 11 12 12 12 11 11 12 9 8 8 8 9 8 7 9 8 7 7 10 9 8 8 5 6 6 6 6 4 6 6 8 11 8 9 8 9 9 8 6 6 9 13 12 12 11 10 10 10 11 10 10 10 10 11 11 11 10 10 10 10 9 9 8 9 9 9 8 8 7 6 6 5 4
11 11 12 13 12 11 12 11 12 10 10 9 10 9 9 7 7 6 8 10 9 8 9 6 4 4 4 2 4 9 10 8 6 6 9 9 8 8 8 6 6 9 12 13 12 12 11 11 11 11 11 11 11 12 12 12 11 10 11 11 11 10 8 8 8 8 8 7 7 6 5 4 4 2
12 12 12 13 12 11 12 13 11 11 12 10 11 13 11 10 8 9 8 8 9 9 10 9 5 7 7 5 5 10 8 9 8 7 6 6 7 8 8 6 4 2 6 5 7 7 9 11 12 11 11 12 12 11 12 11 11 11 11 12 11 11 10 9 9 8 8 7 6 5 4 4 3 3
12 12 12 13 13 13 13 13 13 12 12 11 13 13 12 11 11 10 9 9 10 11 10 8 7 7 7 7 9 8 9 6 8 10 9 9 7 7 9 7 6 5 7 6 6 8 8 10 8 10 12 12 12 12 11 11 11 11 12 11 11 10 10 9 9 8 7 6 5 4 2 2 3 3
11 12 12 13 13 13 13 13 13 13 12 11 12 11 10 11 12 11 10 11 9 9 9 8 6 5 6 7 2 6 9 8 6 8 9 11 10 9 7 8 10 8 7 8 7 9 10 10 11 11 10 11 12 12 12 13 13 12 10 11 11 11 10 10 9 7 6 5 4 3 3 3 4 4
12 12 11 12 12 14 16 20 18 15 15 11 12 12 11 12 12 12 10 10 10 9 8 6 4 5 6 9 10 11 12 13 11 13 8 9 10 9 7 6 8 10 11 9 7 8 8 8 7 7 7 7 11 10 11 11 13 13 11 10 11 11 10 9 8 6 5 5 5 4 4 5 6 6
12 13 12 11 19 23 26 26 26 24 21 20 15 13 12 13 12 12 12 10 7 7 7 8 7 8 9 11 13 13 14 11 6 10 10 11 9 9 7 6 6 9 11 10 9 6 7 8 7 7 8 8 10 7 7 7 8 10 11 11 11 11 10 9 7 7 7 7 6 6 6 6 7 7
12 12 12 12 15 18 20 20 26 23 23 23 22 22 19 16 15 13 11 7 8 8 8 8 9 9 9 9 10 11 11 12 10 13 13 8 12 13 12 9 5 9 12 10 10 8 7 8 9 8 7 9 7 7 7 10 12 11 10 11 11 11 10 9 8 8 8 8 7 7 7 7 7 8
12 12 12 11 10 11 14 14 15 21 25 26 26 25 23 22 22 18 14 11 9 9 9 8 10 10 10 9 9 8 8 12 9 9 9 10 14 13 12 10 9 9 12 11 11 9 6 7 5 6 6 7 7 7 10 12 12 11 11 11 11 10 9 9 8 9 9 8 7 8 8 8 8 8
12 11 11 11 10 10 18 17 15 14 16 22 24 22 23 23 23 21 22 20 16 14 14 14 14 14 13 12 10 11 12 10 11 12 10 10 13 14 14 13 10 11 12 8 6 8 8 9 6 6 6 6 6 8 11 14 13 13 13 12 11 10 9 9 9 8 8 7 6 7 8 7 7 7
13 13 12 12 11 10 11 11 14 14 14 13 12 14 14 14 18 24 23 24 22 17 14 13 14 14 13 14 14 16 14 14 14 12 12 12 11 14 15 11 10 10 12 12 9 6 9 9 7 7 6 6 6 6 9 12 13 13 13 12 11 9 8 8 8 7 5 5 5 5 7 7 7 6
14 13 13 13 13 12 11 11 14 14 13 13 10 10 10 11 13 12 13 15 13 13 12 12 15 14 15 15 13 13 14 17 15 17 15 15 14 10 6 7 6 9 10 10 10 9 9 10 7 6 7 7 7 6 10 14 14 14 13 12 10 9 8 8 6 5 3 3 5 4 4 7 7 7
12 13 13 13 13 12 13 14 18 16 11 10 10 10 10 13 13 14 14 16 17 16 14 14 14 12 13 14 11 13 14 13 10 9 6 4 6 9 9 10 9 10 9 11 11 6 7 10 8 7 6 7 7 6 6 12 14 14 13 11 10 9 8 7 5 4 2 2 3 4 2 6 7 8
13 13 13 14 12 12 13 15 16 15 15 11 10 11 13 14 13 14 13 16 19 20 20 19 19 16 14 14 14 15 15 9 9 10 10 11 10 10 10 8 8 10 9 9 8 6 8 9 7 7 6 7 7 7 7 7 11 13 13 11 10 9 8 7 6 5 3 2 2 4 1 3 7 8
12 15 23 20 14 13 13 16 16 14 15 12 12 13 13 12 14 14 12 11 13 18 18 18 16 12 11 14 13 15 15 16 15 14 15 15 12 13 12 11 10 8 9 10 8 8 7 9 7 8 6 5 2 4 5 7 8 11 10 11 10 9 8 8 7 6 5 5 4 3 6 3 4 4
11 12 15 24 20 16 15 16 14 16 16 12 11 14 13 13 14 14 13 12 11 11 12 12 9 7 9 10 12 13 21 23 21 15 15 13 15 14 12 11 9 7 9 10 11 10 8 11 7 10 8 4 2 2 4 6 6 6 6 6 7 9 8 9 8 8 7 6 6 6 4 7 3 2
11 12 12 14 18 20 19 15 14 16 18 13 11 13 12 13 16 12 10 11 12 13 13 13 13 13 12 11 10 9 11 15 16 14 10 13 14 13 11 12 14 13 10 10 12 8 7 9 9 8 7 8 6 6 4 5 5 5 6 5 4 8 8 8 6 9 8 7 8 7 7 5 6 3
11 11 11 10 14 16 16 15 16 16 17 17 13 13 13 15 14 8 9 13 18 11 9 10 10 11 10 10 10 10 10 11 11 11 8 11 12 12 13 13 13 8 4 11 16 10 8 9 10 8 2 2 5 7 7 7 5 5 5 5 6 4 5 5 5 5 7 9 8 9 8 5 5 4
10 10 9 9 11 13 13 15 17 18 17 19 13 14 20 19 14 11 10 9 9 9 9 9 11 10 9 10 10 11 11 11 12 11 10 10 11 11 14 15 13 10 7 11 19 11 11 8 11 11 6 5 3 6 8 6 4 6 5 5 5 5 5 5 5 4 4 4 5 6 7 7 6 7
11 8 8 8 11 13 15 16 17 16 18 15 12 18 20 18 18 16 11 8 8 8 8 10 10 9 10 10 11 10 11 11 12 11 10 9 7 6 5 5 4 6 8 11 9 8 12 8 10 12 10 5 8 5 7 9 5 4 4 5 5 4 5 5 5 5 4 5 5 8 6 4 6 7
10 9 8 8 12 14 14 15 15 16 16 11 15 15 17 17 19 14 12 10 9 9 9 10 10 7 3 3 6 7 8 9 10 9 8 8 10 10 9 8 10 10 12 10 8 4 8 10 9 6 10 11 10 10 9 2 3 9 8 4 4 4 5 6 5 5 4 4 4 4 3 3 2 3
9 9 13 14 13 13 13 15 16 15 16 16 14 16 16 13 4 5 7 5 4 5 3 5 7 6 6 5 4 6 5 4 7 10 8 9 9 10 11 11 10 9 8 7 7 6 7 10 9 7 6 5 8 6 8 8 7 6 7 7 4 4 5 5 6 6 5 4 5 5 5 5 4 4
16 15 14 14 13 11 10 9 7 6 5 6 6 6 7 6 7 5 5 6 8 9 7 7 7 7 6 7 7 7 7 7 6 3 10 12 10 11 13 13 11 9 8 7 7 7 7 8 9 9 8 5 5 7 6 7 5 5 7 8 5 4 3 5 5 4 5 6 5 5 5 4 4 4
9 8 6 4 3 4 6 6 7 8 9 8 7 7 7 8 9 8 8 9 10 9 10 10 10 8 8 8 10 9 8 9 9 9 7 6 11 13 11 13 11 11 8 8 8 8 8 8 8 10 9 6 4 5 6 6 7 6 6 5 7 6 5 4 4 4 5 5 5 4 3 3 3 4
5 4 7 9 7 8 8 8 8 7 7 9 9 9 9 10 11 15 19 17 11 10 10 11 10 10 10 11 10 10 10 10 9 9 11 10 9 8 12 13 10 8 8 9 9 8 7 6 7 6 8 8 7 4 4 5 7 7 5 5 5 2 5 7 5 4 4 4 4 4 4 5 4 4
5 7 6 7 7 7 9 9 9 9 9 8 9 13 11 10 11 10 11 12 12 11 10 9 9 10 11 12 12 13 13 10 8 7 10 10 10 8 10 11 8 9 10 8 7 7 7 7 7 8 6 5 6 8 7 5 3 3 5 5 4 3 3 4 5 5 4 4 5 5 5 4 4 4
7 7 7 7 9 10 10 8 7 8 9 10 10 8 9 10 10 10 9 10 10 10 10 10 10 9 9 9 8 9 11 12 12 9 8 9 9 8 9 10 8 6 7 7 6 6 6 7 8 8 7 5 3 2 4 5 4 3 3 4 4 5 4 4 3 5 7 7 7 6 5 5 5 3
7 7 7 6 6 7 7 6 7 9 11 10 10 9 9 10 11 11 9 9 10 11 11 10 10 10 10 10 9 10 7 5 6 9 9 9 9 9 8 9 8 7 7 6 5 4 6 6 7 6 4 3 3 2 3 1 4 4 3 2 3 4 4 4 4 5 6 4 4 6 6 4 5 4
4 7 8 9 8 8 9 7 7 9 11 11 11 11 12 10 9 10 10 9 10 10 11 11 10 9 9 9 9 9 9 8 7 8 8 8 9 8 8 10 9 8 6 6 5 5 5 5 5 6 4 3 2 3 3 2 2 3 5 4 4 4 3 4 4 4 5 5 5 5 6 6 6 5
4 5 7 10 9 9 9 8 9 10 11 11 11 11 12 12 10 10 11 10 10 9 9 10 10 9 9 9 9 9 8 7 7 6 7 7 7 8 9 7 6 7 8 5 4 4 4 5 4 4 5 4 4 4 2 1 2 3 4 4 3 3 4 4 5 5 6 6 5 5 6 6 5 5
8 7 9 9 10 10 9 9 10 11 11 11 12 12 12 12 11 11 9 10 9 8 9 9 9 8 7 7 8 8 7 6 6 6 6 6 8 8 7 7 6 5 4 4 4 5 4 5 5 5 5 6 5 4 4 2 1 4 7 5 4 3 4 5 5 5 5 5 6 5 3 4 6 4
10 10 10 11 10 10 11 10 10 11 11 11 12 12 12 11 10 9 9 9 8 8 8 8 8 7 8 7 7 6 6 6 6 6 5 4 4 5 5 6 6 5 6 4 3 4 4 5 5 6 6 5 6 5 4 4 4 2 3 5 3 4 4 6 5 4 4 5 5 2 3 2 4 2
11 11 11 10 10 11 11 11 11 11 11 11 10 10 11 11 10 10 9 8 8 8 8 8 8 7 7 6 7 6 6 7 6 5 5 4 4 5 5 5 6 6 6 6 6 4 4 4 4 5 5 3 1 2 2 2 2 1 2 3 5 4 3 4 4 4 4 4 2 3 4 2 4 2
13 14 13 12 12 12 12 12 12 11 11 10 11 10 10 10 11 9 9 8 8 8 7 6 6 5 6 6 6 6 7 5 5 5 5 4 5 5 6 6 4 4 5 4 4 4 4 3 2 5 5 3 3 3 4 3 3 2 2 2 2 1 2 5 5 4 4 3 5 5 5 4 4 3
12 13 11 10 12 11 12 12 11 11 10 9 9 9 9 10 10 12 11 10 8 7 6 5 5 6 5 5 5 6 6 5 4 4 5 5 5 5 6 5 5 3 4 4 4 4 2 1 4 5 4 4 3 3 2 2 2 1 0 1 1 2 2 5 6 5 4 4 4 3 2 1 2 4
13 13 12 12 12 11 11 10 10 10 10 10 9 9 9 10 10 9 7 7 7 6 6 5 5 5 5 4 4 5 5 5 5 5 6 5 6 6 4 3 3 4 5 5 4 3 3 3 4 4 4 3 2 1 2 2 2 2 0 1 1 1 1 1 1 5 7 8 5 1 2 2 3 5
12 13 12 11 12 11 10 10 9 10 10 10 9 9 8 8 8 7 7 6 6 6 5 5 5 5 5 5 4 4 4 4 4 5 5 4 4 4 5 5 5 6 5 5 4 4 3 3 2 2 4 2 1 2 2 2 1 1 1 1 0 1 1 1 1 2 2 2 3 3 1 2 2 3
11 11 11 11 11 10 10 9 9 8 9 9 9 8 7 7 7 6 6 6 6 6 5 5 5 4 4 4 5 5 5 5 5 5 4 4 4 4 5 6 6 6 5 5 5 4 3 3 2 2 3 2 1 2 2 1 1 1 2 2 2 1 2 2 3 3 3 4 4 2 2 2 2 0
Wind_Direction
233 229 222 220 223 221 217 219 216 215 218 217 213 202 211 200 228 239 243 227 228 239 195 232 226 184 171 170 175 179 185 176 172 153 154 158 159 162 161 164 168 174 179 182 187 190 193 199 201 203 212 221 227 230 217 209 175 164 156 144 135 134 128 127 113 105 96 96 95 93 87 77 68 63
244 239 234 226 230 222 217 219 218 213 212 210 209 207 211 196 212 213 233 250 202 231 221 209 217 180 179 170 172 187 177 182 169 157 163 162 165 165 165 166 168 171 170 168 165 168 182 191 193 197 201 208 220 223 200 184 162 159 147 135 140 133 126 118 109 105 104 101 98 94 86 81 71 66
243 240 236 230 230 225 222 221 221 220 212 209 201 208 198 200 208 207 204 246 234 195 215 216 202 167 177 171 164 174 177 179 168 162 162 169 165 164 167 167 167 163 157 155 157 168 175 177 185 188 192 198 201 181 173 163 154 142 143 145 139 132 126 117 108 105 104 101 96 91 84 76 71 66
236 235 235 229 228 224 223 223 221 219 215 206 199 200 192 199 208 197 202 224 245 195 204 197 183 175 158 165 167 175 172 179 165 169 166 166 152 165 164 169 163 160 157 156 158 165 167 173 177 183 185 188 170 161 160 147 139 148 148 142 135 127 119 110 107 103 97 93 89 87 85 79 73 70
241 239 237 235 231 223 222 219 217 215 210 205 209 205 195 197 187 191 200 222 242 244 230 211 177 168 157 177 180 172 174 180 178 168 164 164 170 163 162 163 165 160 156 157 160 162 166 172 178 179 178 178 165 156 143 141 155 150 144 137 128 118 110 107 104 99 94 89 86 83 79 74 71 71
242 245 245 244 239 227 226 221 220 214 212 208 207 211 202 205 192 192 192 217 225 238 155 214 164 172 188 176 188 176 175 182 174 174 167 160 158 169 161 160 162 161 161 158 162 163 166 171 175 174 170 165 158 151 143 154 155 142 138 129 114 107 106 103 99 94 89 84 80 73 69 66 63 65
241 242 242 244 240 233 231 226 224 216 215 207 210 214 206 213 203 189 198 196 217 228 228 196 187 189 191 194 185 189 179 174 176 171 170 173 177 172 163 161 154 167 162 163 166 166 165 165 164 158 156 151 147 145 145 134 109 108 111 111 105 101 94 91 90 89 84 79 73 67 63 61 57 58
238 241 244 243 238 232 230 228 220 211 208 207 212 212 205 212 207 190 192 205 211 209 222 202 201 193 183 199 166 172 163 170 175 170 163 165 176 177 178 166 159 170 164 168 168 164 156 151 148 146 144 137 130 123 115 112 115 116 120 116 110 100 97 90 90 84 81 75 67 61 56 50 47 48
241 241 241 244 240 235 234 231 228 213 203 205 208 209 207 202 203 194 196 208 208 206 212 209 196 176 197 152 159 176 172 171 164 153 169 172 170 168 176 170 167 162 170 167 163 155 148 143 139 135 130 124 121 121 123 123 126 130 126 121 115 109 99 96 91 86 80 72 66 59 51 42 36 34
241 242 244 244 240 234 231 234 229 221 213 209 209 212 208 204 196 200 201 200 205 212 219 206 179 192 186 181 185 189 176 165 167 166 162 148 164 165 163 171 135 139 162 159 153 140 140 136 133 131 128 127 127 129 131 132 135 136 130 124 120 115 111 106 98 90 81 72 63 53 39 27 20 18
242 240 241 244 240 235 231 230 228 222 220 218 218 213 211 203 199 201 200 198 200 208 213 212 195 189 199 183 188 192 189 171 168 165 162 167 169 169 165 144 146 158 151 145 153 158 156 144 135 130 132 134 137 138 136 139 143 138 133 130 126 122 115 106 97 87 79 75 69 65 48 33 41 57
243 241 240 240 241 237 233 231 229 222 219 217 221 219 215 207 203 204 201 202 201 203 206 205 191 187 176 194 157 165 174 173 186 180 171 177 172 172 165 165 155 164 159 157 147 137 134 134 130 129 137 150 150 142 143 149 145 140 136 134 129 123 114 108 101 93 93 92 92 91 91 94 96 109
243 241 239 240 241 241 238 234 230 221 219 217 217 218 213 211 209 209 207 204 200 203 199 199 181 179 190 196 180 178 184 190 187 184 175 181 174 163 154 160 169 164 168 163 150 155 156 147 147 145 152 165 160 155 153 151 147 144 142 138 133 125 118 111 109 110 102 89 85 92 104 112 123 137
245 243 239 237 240 245 247 246 242 235 222 212 212 216 209 212 211 211 210 205 193 189 190 195 179 186 202 196 195 191 197 193 156 170 179 180 167 157 156 145 175 174 170 159 163 161 162 158 152 161 166 168 167 161 164 162 154 150 146 143 138 129 121 122 122 112 93 81 81 90 101 119 135 142
248 244 239 236 238 242 248 245 245 238 234 231 219 211 206 205 207 210 207 201 191 189 195 192 187 193 194 195 191 195 189 189 177 183 184 165 161 170 168 181 164 191 174 168 165 167 172 169 166 172 169 167 169 164 163 153 147 146 148 149 139 130 134 135 126 108 90 81 82 87 94 108 127 133
250 248 244 237 233 234 235 237 239 240 238 236 233 226 213 207 206 205 201 197 195 195 201 195 196 194 202 193 186 188 180 190 183 184 180 176 175 174 184 179 183 180 177 166 172 169 168 182 159 161 168 165 163 161 149 150 148 148 154 150 138 143 147 136 117 97 84 82 89 94 96 105 119 129
246 246 245 242 234 231 231 236 237 238 237 234 232 232 231 224 216 214 211 204 200 197 203 203 200 200 198 195 193 187 185 175 182 182 186 183 181 182 183 190 177 168 173 155 146 163 175 179 173 169 165 157 153 147 154 158 156 158 160 151 152 156 149 127 107 93 88 88 93 105 108 113 124 136
244 240 241 239 237 230 228 229 234 235 237 238 232 231 230 231 233 224 214 215 208 198 204 202 209 207 195 202 197 194 180 175 186 179 190 187 181 185 194 180 169 157 167 174 158 155 174 186 173 168 160 154 142 144 148 154 162 166 161 157 160 163 147 124 111 101 92 87 86 103 120 125 132 140
244 242 239 237 236 232 226 226 229 233 235 238 235 224 223 234 239 246 231 217 212 213 212 212 216 209 203 211 199 185 184 187 182 179 183 188 191 175 90 66 114 150 179 170 162 178 175 180 170 170 155 157 148 140 157 167 171 171 164 161 167 166 149 130 122 112 104 85 82 86 122 130 133 138
241 242 239 239 237 232 232 230 226 228 231 232 229 222 206 230 234 235 227 217 211 212 212 213 217 217 205 206 195 187 187 188 165 140 89 117 130 145 164 169 161 166 184 185 177 140 156 176 173 155 143 143 142 151 155 177 175 171 164 166 172 168 151 144 140 149 149 112 85 97 155 151 147 148
242 239 236 237 237 233 233 233 228 222 227 227 222 215 211 222 227 231 229 223 220 218 216 215 217 213 201 199 194 188 181 151 132 134 153 175 170 167 176 173 164 178 171 189 189 138 146 173 159 131 149 157 153 161 166 166 181 169 165 168 172 167 159 162 172 184 196 199 192 130 167 204 163 163
238 234 237 238 238 239 237 233 226 211 219 224 216 204 211 215 225 227 222 219 222 222 224 225 224 211 189 189 171 163 172 165 168 169 185 181 171 182 181 177 181 163 178 186 166 142 159 152 143 130 127 118 107 154 153 160 163 164 159 168 171 170 170 177 190 199 209 219 222 228 154 225 169 161
240 238 235 238 236 235 238 231 219 209 216 217 206 208 216 219 224 226 215 211 212 210 214 221 216 206 194 185 185 189 186 186 188 192 190 167 177 182 182 166 146 149 202 192 175 159 153 154 152 136 130 157 141 162 158 166 158 160 156 162 172 174 176 188 197 203 215 218 223 239 217 153 198 161
242 238 236 238 238 240 243 236 220 210 207 210 198 206 218 219 227 222 211 205 210 211 207 208 204 206 199 198 193 188 187 189 195 203 190 179 182 183 170 170 176 185 181 170 176 160 148 158 151 170 156 147 173 181 166 173 164 159 159 156 158 175 181 188 201 212 216 217 220 227 240 186 180 171
244 238 232 235 234 232 236 236 233 221 212 211 203 200 214 223 225 207 204 215 213 209 205 209 211 211 199 199 190 185 186 190 196 200 189 181 183 166 171 178 193 183 133 167 165 129 150 162 151 154 126 76 119 144 183 177 166 167 165 168 170 161 171 193 195 196 217 225 217 222 229 226 201 214
243 236 231 232 225 220 221 226 227 223 218 214 207 201 212 222 222 220 218 213 209 199 193 193 208 212 205 204 197 191 191 191 193 197 191 187 186 185 178 174 175 177 169 160 160 146 127 159 160 162 156 126 138 146 147 183 179 176 158 176 183 172 176 183 187 190 192 191 196 208 217 215 203 214
249 239 233 229 221 215 217 220 222 221 217 209 206 209 218 216 218 222 226 206 193 186 178 185 201 204 205 203 203 196 192 190 188 187 180 174 159 125 93 74 88 107 117 146 164 157 142 143 161 159 160 141 134 151 165 165 183 146 150 177 179 168 186 183 186 191 182 183 195 189 195 179 202 219
249 244 230 224 220 218 213 213 217 217 213 211 213 212 219 216 217 218 220 204 190 186 183 193 199 192 204 245 216 202 186 178 176 160 140 129 126 114 103 103 106 117 126 139 139 147 135 138 158 157 149 148 148 161 171 158 112 171 172 148 170 178 185 187 189 183 176 175 169 163 175 193 209 207
244 241 228 223 217 215 209 210 213 215 214 211 211 215 223 227 224 173 202 185 140 127 92 66 55 49 41 36 34 29 28 79 120 121 106 107 103 100 98 97 96 102 107 105 108 121 131 142 145 131 126 138 144 156 157 168 159 165 165 145 172 185 180 189 183 177 169 168 177 174 191 190 187 200
238 232 225 223 224 217 211 204 204 211 202 177 174 160 130 109 140 135 112 93 99 98 91 80 72 67 59 53 42 43 57 65 30 64 129 124 112 112 114 103 83 76 76 79 85 99 107 121 133 131 120 112 132 143 150 135 150 159 163 171 138 109 177 176 178 166 160 173 176 182 187 175 198 184
246 257 254 224 174 150 170 153 115 110 120 126 125 107 106 111 110 113 109 115 110 109 105 101 92 82 78 72 61 51 42 40 52 57 29 81 118 116 101 94 89 78 70 76 78 86 102 112 120 126 122 119 105 139 155 144 143 152 166 151 153 169 166 164 171 168 171 168 161 162 164 195 214 213
207 167 112 105 106 109 107 113 112 104 99 106 108 105 105 106 108 110 107 99 96 95 99 100 104 96 89 80 80 75 62 52 43 61 77 67 51 67 98 96 95 95 84 68 64 66 81 90 99 98 121 140 140 140 120 141 152 160 152 157 165 114 140 167 168 176 165 143 151 194 204 206 210 206
136 130 130 119 116 116 120 117 116 114 104 88 99 109 109 107 108 111 115 118 117 125 121 118 118 123 119 120 117 110 99 83 70 57 73 70 76 63 73 86 96 105 102 93 87 77 75 76 72 82 86 91 127 139 138 129 140 147 155 156 155 147 161 163 167 163 130 144 192 196 208 214 214 209
147 146 137 141 135 132 129 125 120 118 114 110 103 94 92 99 102 101 98 101 105 100 96 94 93 90 86 82 80 88 104 121 121 110 98 94 92 89 89 96 90 83 93 101 103 104 89 73 74 62 62 62 42 93 132 124 140 157 145 150 160 176 179 165 177 154 169 184 186 191 206 219 214 203
148 142 140 134 116 119 116 102 114 114 111 108 100 95 92 95 100 100 96 103 108 105 104 102 100 102 104 104 99 99 91 78 74 98 102 104 107 108 108 98 97 105 114 119 113 104 93 99 100 93 73 72 107 46 335 28 137 136 134 163 181 183 182 180 165 173 186 184 172 191 205 213 224 208
141 147 129 121 119 116 112 107 111 111 109 111 110 110 105 99 95 97 97 102 105 104 107 110 109 105 104 104 105 103 107 110 105 103 109 113 114 114 118 125 137 138 132 133 130 120 127 128 137 144 149 136 130 143 178 332 344 150 162 170 176 197 188 168 179 163 175 188 183 189 199 209 219 216
101 103 112 115 116 114 109 110 109 104 106 109 106 103 105 105 103 99 102 100 96 95 99 103 104 105 107 112 115 113 111 111 116 117 107 111 116 126 127 133 132 133 148 148 134 130 138 145 155 148 143 148 157 201 184 125 193 221 186 184 167 190 169 151 152 174 196 188 183 195 204 204 216 218
81 86 96 98 102 101 97 99 104 103 100 100 103 101 98 101 103 103 104 101 100 101 105 103 107 109 106 102 107 109 108 107 108 105 104 116 130 129 133 129 124 126 127 128 148 158 158 153 167 164 158 168 181 195 207 174 178 204 202 185 187 162 154 146 164 184 187 191 207 203 188 213 221 226
92 95 97 100 95 98 99 98 96 95 95 97 99 101 102 99 99 99 96 98 103 105 106 108 109 109 109 105 107 113 117 119 115 113 120 126 109 101 103 108 113 128 121 114 117 146 158 175 176 176 181 173 186 195 188 170 203 110 166 190 161 146 171 175 184 183 185 186 208 176 228 282 351 346
81 80 80 83 89 91 92 94 93 94 93 91 92 96 101 101 98 96 93 92 92 91 93 95 101 109 109 113 115 117 120 122 123 124 125 108 99 103 107 120 128 133 124 127 137 144 165 175 172 178 187 179 132 126 140 126 89 80 125 170 201 189 152 169 185 186 205 209 151 186 220 186 234 190
90 88 87 92 91 90 92 91 90 89 90 92 93 92 95 101 101 103 108 108 106 104 102 103 112 112 107 113 120 126 122 111 111 115 112 108 113 119 126 124 109 129 123 123 121 127 125 128 165 150 117 101 116 114 108 114 116 98 89 108 84 33 200 194 193 180 207 161 183 203 218 212 232 216
81 85 84 86 91 95 96 95 95 93 91 90 89 92 96 92 88 84 84 80 80 82 86 89 92 94 94 101 110 112 110 111 115 118 125 124 123 123 127 122 125 127 121 127 124 110 105 328 97 96 105 122 120 108 114 143 137 123 82 38 30 74 168 222 234 225 213 162 158 173 174 180 201 231
80 85 87 86 84 84 83 85 88 92 94 91 88 85 84 83 84 79 79 84 90 90 96 98 104 107 107 103 103 115 119 122 133 135 133 132 127 128 118 103 100 104 99 99 91 94 97 102 102 99 87 66 71 85 135 148 139 138 164 228 124 4 54 87 236 236 234 219 221 293 228 227 187 231
81 83 82 84 86 86 84 81 77 74 79 82 81 81 81 87 90 92 99 105 105 112 115 114 114 115 120 121 119 112 105 108 108 111 108 99 92 99 112 113 112 109 106 104 101 89 84 79 64 96 98 81 79 106 119 130 175 195 220 286 184 160 185 138 120 110 140 173 247 258 284 303 338 359
80 83 84 82 82 80 78 76 76 81 82 84 84 84 84 81 85 88 91 100 105 108 111 111 106 94 84 84 96 86 80 90 93 90 92 93 93 97 100 113 113 114 116 123 113 102 86 77 67 62 76 81 55 95 114 147 165 194 198 219 235 150 161 170 171 153 126 108 63 75 145 184 225 276